Location: Newark
(43.0000°N, 1.6781°W)
Time: 22:55:42
(UTC+00:00)

LilacSat-2 - Pass Details

Date: 03 December 2022
Orbit: 504 x 521 km, 97.5° (Epoch: 08 February)

Event Time Altitude Azimuth Distance (km) Brightness Sun altitude
Rises 05:46:28 0° 17° (NNE) 2,620 ? -16.6°
Reaches altitude 10° 05:48:37 10° 23° (NNE) 1,728 ? -16.2°
Maximum altitude 05:52:14 49° 99° (E) 657 ? -15.6°
Drops below altitude 10° 05:55:49 10° 176° (S) 1,710 ? -15.0°
Sets 05:57:56 0° 182° (S) 2,589 ? -14.6°
